Theta_e
322 334 337 338 337 338 336 337 336 336 336 335 332 330 330 331 330 332 332 324 332 338 339 337 338 337 335 336 336 336 334 335 333 332 331 330 329 328 327 327 326 324 324
323 322 335 336 337 336 336 336 336 335 335 336 332 330 331 330 329 329 329 326 327 332 335 334 333 334 333 333 333 333 332 331 331 329 327 326 326 325 325 323 322 321 321
318 323 327 334 336 336 336 335 335 335 334 334 333 332 332 329 329 326 325 322 323 324 328 331 332 332 332 332 332 331 329 329 328 327 325 324 323 322 321 320 319 318 318
316 320 320 330 334 336 335 334 335 334 333 332 331 331 330 330 327 323 321 320 320 322 324 328 329 331 333 331 332 330 330 327 325 324 322 321 320 319 318 317 317 317 316
315 319 325 328 332 333 334 333 334 332 331 330 329 330 328 326 325 320 319 318 318 318 320 324 324 325 331 332 331 332 328 326 323 321 319 319 318 317 316 316 316 315 315
309 310 316 325 330 327 329 333 331 331 329 326 315 308 308 310 315 316 316 317 317 318 318 317 316 317 324 331 330 328 328 325 322 320 318 318 317 316 315 315 315 314 314
302 308 314 322 327 326 325 330 330 326 323 309 304 301 301 303 305 307 313 314 315 318 318 317 316 314 318 328 329 330 329 327 323 320 318 317 316 315 314 314 313 313 312
303 306 309 318 324 323 323 324 325 320 307 313 309 300 295 299 301 303 306 313 314 317 318 318 316 315 314 317 320 329 329 328 324 321 319 317 315 314 313 313 312 311 311
301 303 309 316 323 324 321 319 317 314 305 311 309 303 293 295 296 299 301 306 312 312 313 315 313 314 315 315 317 322 326 327 324 322 319 318 316 314 313 312 311 310 310
298 298 305 315 321 323 321 320 319 314 308 307 305 301 303 299 295 292 298 300 307 310 309 308 309 308 311 311 312 311 317 321 322 322 319 317 316 314 313 311 309 308 308
298 298 300 314 319 320 320 318 315 315 314 312 306 297 298 298 298 295 293 295 298 301 305 304 303 302 305 309 308 307 314 317 318 317 317 317 315 314 313 310 308 307 308
297 299 301 313 319 319 316 315 314 312 311 311 310 304 300 298 297 297 294 296 295 296 300 302 302 300 301 304 306 304 308 315 316 315 315 315 315 314 312 310 308 307 306
295 299 303 314 316 316 314 313 312 309 309 307 307 305 305 305 301 299 297 295 293 294 296 299 300 302 302 301 301 301 304 310 314 314 313 314 314 313 310 308 306 305 305
294 296 300 312 315 312 311 311 311 309 309 307 307 305 302 300 302 302 297 295 291 290 292 294 296 299 300 301 300 299 303 305 310 313 312 312 311 309 307 306 305 303 302
297 296 297 309 314 310 309 309 309 307 307 305 304 301 300 298 300 301 300 299 297 291 291 293 294 297 299 300 298 301 302 300 306 308 308 308 307 306 305 304 303 302 301
294 295 299 309 311 308 308 307 306 304 304 302 299 298 298 299 300 300 299 300 300 298 292 291 292 295 298 299 296 300 300 297 301 303 304 304 304 304 303 302 302 300 300
294 294 295 307 305 300 305 306 304 303 301 300 298 298 298 300 299 299 300 300 299 299 295 287 287 289 290 295 295 297 296 297 297 299 301 302 302 302 302 301 300 299 298
294 295 299 307 305 304 304 304 301 301 300 298 297 298 297 298 298 299 300 299 299 298 290 286 286 287 288 289 290 291 294 295 292 298 301 301 301 300 299 299 298 296 295
293 294 302 306 303 303 303 302 302 300 300 299 297 297 297 296 295 296 297 294 294 293 290 288 286 287 287 290 289 288 289 289 291 296 300 299 299 299 298 297 295 294 292
293 296 303 305 303 302 300 298 297 296 296 294 297 298 298 297 295 293 294 293 289 290 289 289 287 287 287 286 289 288 287 286 287 289 292 292 295 296 296 295 293 292 290
296 300 302 300 299 299 297 295 295 295 293 293 294 295 297 297 293 294 293 291 290 290 289 288 286 286 285 287 288 287 287 286 286 284 284 284 285 285 285 291 289 289 289
293 294 293 293 293 294 295 295 295 294 293 293 292 293 295 291 293 293 294 293 292 290 287 289 286 287 285 288 288 288 286 286 285 286 284 283 283 282 283 283 288 289 290
292 292 292 292 290 292 294 294 292 292 292 292 292 292 291 293 293 294 294 294 292 293 294 290 289 288 287 288 289 287 287 285 284 286 286 283 283 283 282 284 288 290 290
290 290 290 291 291 291 293 292 291 292 291 290 291 291 291 291 294 295 294 293 291 291 291 290 290 289 288 290 290 289 287 283 284 284 283 282 282 281 282 282 288 290 291
286 288 288 288 288 289 291 291 290 289 289 288 288 289 289 290 291 293 293 293 291 289 292 293 293 292 292 292 290 288 286 286 282 282 282 280 281 281 282 283 284 291 289
285 286 285 287 287 288 290 290 289 288 286 286 286 286 287 289 291 293 291 290 288 287 288 288 290 291 291 290 290 290 288 287 283 281 282 281 280 281 279 282 282 283 284
Wind_Speed
5 9 9 10 9 10 12 12 12 12 13 14 13 13 12 7 7 6 6 13 14 17 19 19 18 17 16 16 16 15 14 14 16 15 15 14 13 12 12 12 12 8 8
4 7 9 11 10 10 11 12 13 13 13 13 14 14 13 6 7 11 7 8 13 15 18 20 19 19 17 17 17 17 16 14 14 13 13 14 13 12 12 11 11 9 9
5 6 8 8 10 10 14 13 13 13 12 11 14 14 10 8 7 12 10 7 7 11 13 18 18 20 20 18 18 17 16 15 13 13 13 13 14 13 12 11 10 10 9
7 6 5 9 9 10 11 13 13 12 13 12 11 13 9 9 10 13 11 9 7 7 8 13 16 18 19 20 19 17 18 16 14 14 14 12 12 12 12 11 10 9 9
8 5 4 8 9 8 11 13 13 14 13 12 12 11 9 7 10 10 13 12 10 7 5 11 12 11 17 20 20 21 18 16 15 13 12 12 13 12 11 11 10 8 8
7 7 9 9 13 11 10 14 17 14 11 10 7 7 6 4 4 4 11 10 10 9 6 7 6 5 9 19 20 19 19 18 16 16 14 14 13 12 11 10 9 7 6
9 11 10 9 7 11 19 12 15 20 10 12 11 5 7 8 6 5 2 5 10 10 9 8 5 4 4 14 20 22 22 21 18 18 16 14 13 12 11 9 8 6 5
10 11 10 9 7 7 15 13 12 11 5 13 8 5 4 4 6 7 5 1 5 6 9 10 7 7 6 4 6 22 22 23 20 18 17 15 13 12 11 9 7 4 3
8 9 9 11 8 10 9 9 6 12 7 7 13 7 5 4 5 3 5 4 4 3 6 6 7 6 6 5 6 9 19 22 23 20 17 17 15 12 10 8 7 4 3
11 12 14 13 11 9 11 12 13 11 11 8 6 5 1 8 7 3 2 5 2 5 6 4 5 5 5 4 5 6 14 19 21 21 19 17 16 13 10 8 5 3 2
11 11 14 14 12 10 10 13 13 13 14 13 6 4 1 6 7 6 6 3 2 3 4 4 5 5 5 5 4 4 11 16 17 17 18 17 17 15 12 8 6 2 0
7 10 14 14 14 13 13 12 16 16 14 12 11 9 8 7 5 5 5 6 4 2 3 3 4 4 4 4 4 8 6 14 16 19 17 16 17 15 12 9 7 5 1
10 8 11 13 12 14 14 13 15 14 16 15 17 11 8 7 7 6 8 7 2 1 3 2 2 4 3 4 4 6 6 8 12 17 18 18 15 14 11 9 7 5 3
9 10 14 13 15 14 13 14 13 11 14 12 16 12 9 6 11 10 9 15 8 2 1 3 3 3 4 4 6 9 4 8 10 15 16 16 16 14 12 9 8 5 2
9 15 16 15 17 16 16 15 12 13 14 12 12 13 10 8 7 8 8 14 15 10 10 5 3 4 5 5 6 5 5 8 12 14 16 17 16 16 13 11 8 5 2
18 14 11 14 15 17 18 17 11 13 14 10 10 14 11 10 9 8 9 10 5 9 11 3 3 4 6 5 8 8 7 8 9 11 12 14 15 14 13 10 8 5 3
18 17 16 16 16 15 16 16 15 16 17 15 14 16 15 16 10 9 10 9 8 6 12 3 2 2 2 7 6 4 8 7 5 10 12 13 13 12 11 9 7 4 2
15 16 16 15 17 19 19 17 17 17 18 18 17 17 16 12 14 11 10 11 10 7 5 5 4 3 3 3 4 4 6 7 6 10 12 11 11 11 9 8 5 3 2
19 14 16 19 17 17 18 17 19 19 18 18 19 20 18 16 15 12 11 8 6 5 5 6 5 2 3 4 5 3 3 4 4 11 12 11 10 9 9 7 6 4 3
15 17 16 19 18 17 17 16 16 15 15 15 17 18 18 18 16 13 9 9 7 7 8 10 7 7 4 2 4 6 4 1 4 3 6 7 9 8 8 7 5 3 2
12 12 16 15 15 15 13 18 17 17 17 16 15 14 15 16 16 15 11 10 11 9 9 11 8 6 6 7 10 4 4 2 3 2 2 2 3 3 2 5 4 4 4
9 10 14 16 14 10 19 22 19 17 16 17 16 14 14 15 17 16 13 14 14 13 6 7 4 9 7 8 7 7 6 5 4 3 3 2 3 2 3 3 6 6 5
9 14 15 17 15 14 21 21 19 12 14 13 14 13 11 11 14 13 14 14 7 6 16 8 9 7 9 12 12 10 6 2 1 4 5 3 2 3 2 4 6 6 6
12 15 14 15 17 13 20 20 17 12 12 11 11 10 11 12 14 15 13 10 8 5 5 5 7 8 7 13 14 8 8 6 4 2 2 4 2 3 2 1 6 7 10
12 14 20 16 20 17 20 20 13 7 10 11 10 9 10 9 12 16 14 13 9 5 6 11 12 14 19 20 14 10 8 8 3 3 1 4 2 3 2 1 0 12 10
16 19 21 17 24 19 23 19 15 9 8 8 9 7 12 12 18 20 12 12 12 9 10 9 9 12 14 17 20 10 9 9 4 2 4 4 3 4 4 1 1 3 3
Wind_Direction
271 274 230 211 194 191 198 189 177 175 174 167 168 179 189 186 160 142 154 160 158 166 173 171 172 171 173 163 155 148 147 135 129 129 130 124 120 113 102 97 96 112 100
227 283 256 225 206 197 196 188 180 178 177 169 171 179 190 176 165 141 152 163 161 166 176 176 176 175 174 170 166 160 152 139 136 137 132 122 117 111 109 113 113 108 99
228 224 278 236 228 200 192 190 185 176 176 171 174 178 174 173 171 147 152 153 167 171 175 178 176 177 173 171 171 165 154 135 134 130 128 122 121 120 118 118 117 114 106
249 248 243 250 225 231 193 191 178 176 180 176 169 177 172 176 166 151 151 156 160 167 179 175 178 177 176 170 171 164 150 146 146 142 132 132 126 124 125 125 125 123 119
260 270 250 277 250 237 209 190 179 186 180 171 169 175 164 172 168 149 156 158 160 161 164 176 170 182 182 173 173 156 152 154 155 152 154 147 138 137 136 135 132 128 126
284 263 262 241 231 215 264 192 181 179 173 148 99 87 74 57 72 136 159 157 164 159 154 146 145 151 192 175 168 168 163 160 161 154 159 151 146 143 142 140 136 131 129
245 262 257 251 220 201 213 237 191 173 162 135 112 65 59 56 46 45 46 143 166 165 147 150 145 142 149 188 174 174 171 165 165 162 159 157 152 148 143 140 134 129 120
234 238 245 258 236 230 199 179 221 147 91 171 137 114 73 24 35 8 8 129 165 145 152 155 146 155 149 159 183 180 175 169 167 167 161 158 157 154 150 144 134 125 108
245 254 252 229 211 205 189 158 152 131 142 172 161 152 144 125 96 334 352 326 130 126 118 138 135 145 152 147 148 181 174 169 167 170 167 161 161 160 153 148 140 138 115
241 252 258 236 201 203 199 194 165 147 130 179 130 31 329 129 148 137 343 290 338 144 124 119 119 123 116 139 145 161 167 169 167 165 170 164 161 162 156 147 139 139 125
231 232 251 240 190 197 197 182 165 167 179 173 160 178 240 77 103 136 154 218 13 350 115 125 130 130 123 118 122 146 162 164 159 158 164 164 163 164 159 153 144 139 35
235 238 241 242 197 191 182 183 169 168 170 167 169 173 164 145 168 133 122 167 156 57 20 112 127 131 134 130 138 139 136 155 158 153 160 164 163 164 164 161 152 148 144
231 238 241 230 200 187 181 172 172 169 174 165 170 175 180 172 157 120 118 152 112 354 112 38 205 140 147 128 133 131 143 140 155 160 162 160 159 158 164 163 152 155 148
225 227 249 237 198 177 176 172 169 169 177 169 176 172 156 149 157 168 157 152 139 108 1 242 70 186 162 137 151 137 147 130 136 151 152 147 143 150 157 157 158 158 175
234 220 230 239 198 171 172 171 173 166 165 168 168 153 151 144 145 159 158 178 157 162 185 187 153 208 149 139 161 143 148 147 134 136 141 142 147 154 155 164 163 173 174
240 242 243 226 189 176 174 167 171 163 158 153 153 150 146 146 143 152 164 179 200 151 165 125 166 166 155 147 163 154 146 141 144 138 147 147 153 156 161 170 175 165 207
222 228 232 229 187 166 172 171 165 160 161 151 157 155 154 160 152 161 164 171 165 155 159 124 119 32 108 151 178 142 147 143 138 155 152 157 152 155 165 167 159 165 258
229 218 227 201 183 175 170 168 161 163 159 161 159 162 154 162 165 168 168 166 166 143 121 128 124 133 122 113 118 132 151 139 147 160 164 156 155 152 150 151 161 157 109
223 222 223 203 175 181 170 170 170 163 162 164 163 167 163 158 170 173 166 154 143 127 115 131 117 101 89 132 117 86 119 118 127 158 153 162 150 161 158 151 172 148 106
217 222 213 195 177 171 159 158 157 156 156 158 165 169 166 169 163 157 158 154 125 119 120 133 122 135 114 86 124 151 168 64 134 117 130 143 159 156 170 169 156 134 123
216 199 194 165 166 161 159 154 158 155 154 151 155 159 167 169 154 151 157 149 136 138 156 136 127 129 148 157 177 160 154 142 53 142 110 124 104 122 158 162 144 155 191
170 156 153 146 143 146 156 152 156 154 157 159 159 162 166 156 140 141 139 153 155 144 148 136 133 160 159 162 146 171 150 157 194 189 107 121 123 134 142 132 152 157 159
151 162 148 139 125 124 134 132 136 144 144 153 157 163 156 170 158 162 150 142 139 165 160 138 145 154 151 171 162 168 169 145 199 160 122 132 110 110 120 140 159 166 156
164 135 122 106 111 112 119 127 121 129 138 129 132 153 154 161 174 173 173 164 155 160 131 128 151 146 140 159 155 173 142 118 71 14 92 121 158 96 95 113 170 150 137
88 109 90 96 93 86 93 97 110 114 120 119 117 126 128 143 156 158 168 174 177 150 124 124 124 130 140 145 141 128 150 152 134 193 234 114 149 110 88 78 335 137 132
83 79 85 73 80 83 87 98 99 97 89 95 92 105 135 150 153 159 163 160 164 162 142 128 126 129 141 147 155 154 158 169 120 125 225 105 126 142 121 33 40 84 88